Time,TemperatureF,DewpointF,PressureIn,WindDirection,WindDirectionDegrees,WindSpeedMPH,WindSpeedGustMPH,Humidity,HourlyPrecipIn,Conditions,Clouds,dailyrainin,SoftwareType,DateUTC
2017-12-17 00:04:00,63.5,58.6,30.21,NW,313,0.0,0.0,84,0.00,,,0.00,Wunderground v.1.15,2017-12-17 05:04:00,
2017-12-17 00:05:00,63.4,58.5,30.21,NW,313,0.0,0.0,84,0.00,,,0.00,Wunderground v.1.15,2017-12-17 05:05:00,
2017-12-17 00:11:00,63.3,58.4,30.21,NW,313,0.0,0.0,84,0.00,,,0.00,Wunderground v.1.15,2017-12-17 05:11:00,
2017-12-17 00:12:00,63.3,58.4,30.21,NW,313,0.0,0.0,84,0.00,,,0.00,Wunderground v.1.15,2017-12-17 05:12:00,
2017-12-17 00:18:00,63.2,58.6,30.22,NW,313,0.0,0.0,85,0.00,,,0.00,Wunderground v.1.15,2017-12-17 05:18:00,
2017-12-17 00:20:00,63.1,58.5,30.22,NW,313,0.0,0.0,85,0.00,,,0.00,Wunderground v.1.15,2017-12-17 05:20:00,
2017-12-17 00:25:00,63.3,58.7,30.22,NW,313,0.0,0.0,85,0.00,,,0.00,Wunderground v.1.15,2017-12-17 05:25:00,
2017-12-17 00:30:00,63.5,58.6,30.21,NW,313,0.0,0.0,84,0.00,,,0.00,Wunderground v.1.15,2017-12-17 05:30:00,
2017-12-17 00:32:00,63.4,58.5,30.22,NW,313,0.0,0.0,84,0.00,,,0.00,Wunderground v.1.15,2017-12-17 05:32:00,
2017-12-17 00:35:00,63.2,58.3,30.22,NW,313,0.0,0.0,84,0.00,,,0.00,Wunderground v.1.15,2017-12-17 05:35:00,
2017-12-17 00:41:00,63.0,58.4,30.21,NW,313,0.0,0.0,85,0.00,,,0.00,Wunderground v.1.15,2017-12-17 05:41:00,
2017-12-17 00:46:00,62.7,58.1,30.21,NW,313,0.0,0.0,85,0.00,,,0.00,Wunderground v.1.15,2017-12-17 05:46:00,
2017-12-17 00:47:00,62.7,58.1,30.21,NW,313,0.0,0.0,85,0.00,,,0.00,Wunderground v.1.15,2017-12-17 05:47:00,
2017-12-17 00:53:00,62.5,57.9,30.22,NW,313,0.0,0.0,85,0.00,,,0.00,Wunderground v.1.15,2017-12-17 05:53:00,
2017-12-17 00:56:00,62.5,57.9,30.21,NW,313,0.0,0.0,85,0.00,,,0.00,Wunderground v.1.15,2017-12-17 05:56:00,
2017-12-17 01:02:00,62.3,57.7,30.21,NW,313,0.0,0.0,85,0.00,,,0.00,Wunderground v.1.15,2017-12-17 06:02:00,
2017-12-17 01:08:00,62.2,57.6,30.22,NW,313,0.0,0.0,85,0.00,,,0.00,Wunderground v.1.15,2017-12-17 06:08:00,
2017-12-17 01:13:00,62.1,57.5,30.21,NW,313,0.0,0.0,85,0.00,,,0.00,Wunderground v.1.15,2017-12-17 06:13:00,
2017-12-17 01:18:00,62.0,57.4,30.21,NW,313,0.0,0.0,85,0.00,,,0.00,Wunderground v.1.15,2017-12-17 06:18:00,
2017-12-17 01:22:00,62.0,57.4,30.21,NW,313,0.0,0.0,85,0.00,,,0.00,Wunderground v.1.15,2017-12-17 06:22:00,
2017-12-17 01:27:00,61.8,57.6,30.21,NW,313,0.0,0.0,86,0.00,,,0.00,Wunderground v.1.15,2017-12-17 06:27:00,
2017-12-17 01:29:00,61.8,57.6,30.21,NW,313,0.0,0.0,86,0.00,,,0.00,Wunderground v.1.15,2017-12-17 06:29:00,
2017-12-17 01:34:00,61.8,57.6,30.21,NW,313,0.0,0.0,86,0.00,,,0.00,Wunderground v.1.15,2017-12-17 06:34:00,
2017-12-17 01:39:00,61.7,57.5,30.21,NW,313,0.0,0.0,86,0.00,,,0.00,Wunderground v.1.15,2017-12-17 06:39:00,
2017-12-17 01:41:00,61.6,57.4,30.21,NW,313,0.0,0.0,86,0.00,,,0.00,Wunderground v.1.15,2017-12-17 06:41:00,
2017-12-17 01:46:00,61.5,57.3,30.22,NW,313,0.0,0.0,86,0.00,,,0.00,Wunderground v.1.15,2017-12-17 06:46:00,
2017-12-17 01:50:00,61.8,57.6,30.21,NW,313,0.0,0.0,86,0.00,,,0.00,Wunderground v.1.15,2017-12-17 06:50:00,
2017-12-17 01:55:00,62.0,57.4,30.21,NW,313,0.0,0.0,85,0.00,,,0.00,Wunderground v.1.15,2017-12-17 06:55:00,
2017-12-17 02:00:00,61.8,57.2,30.21,NW,313,0.0,0.0,85,0.00,,,0.00,Wunderground v.1.15,2017-12-17 07:00:00,
2017-12-17 02:04:00,61.7,57.1,30.21,NW,313,0.0,0.0,85,0.00,,,0.00,Wunderground v.1.15,2017-12-17 07:04:00,
2017-12-17 02:09:00,61.5,57.3,30.21,NW,313,0.0,0.0,86,0.00,,,0.00,Wunderground v.1.15,2017-12-17 07:09:00,
2017-12-17 02:15:00,61.4,57.2,30.21,NW,313,0.0,0.0,86,0.00,,,0.00,Wunderground v.1.15,2017-12-17 07:15:00,
2017-12-17 02:20:00,61.2,57.0,30.20,NW,313,0.0,0.0,86,0.00,,,0.00,Wunderground v.1.15,2017-12-17 07:20:00,
2017-12-17 02:24:00,61.2,57.0,30.20,NW,313,0.0,0.0,86,0.00,,,0.00,Wunderground v.1.15,2017-12-17 07:24:00,
2017-12-17 02:29:00,61.1,56.9,30.20,NW,313,0.0,0.0,86,0.00,,,0.00,Wunderground v.1.15,2017-12-17 07:29:00,
2017-12-17 02:34:00,61.0,56.8,30.20,NW,313,0.0,0.0,86,0.00,,,0.00,Wunderground v.1.15,2017-12-17 07:34:00,
2017-12-17 02:36:00,61.0,56.8,30.20,NW,313,0.0,0.0,86,0.00,,,0.00,Wunderground v.1.15,2017-12-17 07:36:00,
2017-12-17 02:41:00,60.9,56.7,30.20,NW,313,0.0,0.0,86,0.00,,,0.00,Wunderground v.1.15,2017-12-17 07:41:00,
2017-12-17 02:44:00,60.9,56.7,30.20,NW,313,0.0,0.0,86,0.00,,,0.00,Wunderground v.1.15,2017-12-17 07:44:00,
2017-12-17 02:48:00,60.9,56.7,30.20,NW,313,0.0,0.0,86,0.00,,,0.00,Wunderground v.1.15,2017-12-17 07:48:00,
2017-12-17 02:52:00,60.9,56.7,30.20,NW,313,0.0,0.0,86,0.00,,,0.00,Wunderground v.1.15,2017-12-17 07:52:00,
2017-12-17 02:57:00,60.9,56.7,30.20,NW,313,0.0,0.0,86,0.00,,,0.00,Wunderground v.1.15,2017-12-17 07:57:00,
2017-12-17 03:01:00,60.9,56.7,30.20,NW,313,0.0,0.0,86,0.00,,,0.00,Wunderground v.1.15,2017-12-17 08:01:00,
2017-12-17 03:05:00,60.9,56.7,30.20,NW,313,0.0,0.0,86,0.00,,,0.00,Wunderground v.1.15,2017-12-17 08:05:00,
2017-12-17 03:07:00,60.9,56.7,30.20,NW,313,0.0,0.0,86,0.00,,,0.00,Wunderground v.1.15,2017-12-17 08:07:00,
2017-12-17 03:12:00,60.9,57.0,30.20,NW,313,0.0,0.0,87,0.00,,,0.00,Wunderground v.1.15,2017-12-17 08:12:00,
2017-12-17 03:17:00,60.8,56.9,30.19,NW,313,0.0,0.0,87,0.00,,,0.00,Wunderground v.1.15,2017-12-17 08:17:00,
2017-12-17 03:23:00,60.8,56.9,30.19,NW,313,0.0,0.0,87,0.00,,,0.00,Wunderground v.1.15,2017-12-17 08:23:00,
2017-12-17 03:26:00,60.7,56.8,30.19,NW,313,0.0,0.0,87,0.00,,,0.00,Wunderground v.1.15,2017-12-17 08:26:00,
2017-12-17 03:32:00,60.7,56.8,30.19,NW,313,0.0,0.0,87,0.00,,,0.00,Wunderground v.1.15,2017-12-17 08:32:00,
2017-12-17 03:36:00,60.6,56.7,30.19,NW,313,0.0,0.0,87,0.00,,,0.00,Wunderground v.1.15,2017-12-17 08:36:00,
2017-12-17 03:41:00,60.5,56.6,30.19,NW,313,0.0,0.0,87,0.00,,,0.00,Wunderground v.1.15,2017-12-17 08:41:00,
2017-12-17 03:46:00,60.5,56.6,30.18,NW,313,0.0,0.0,87,0.00,,,0.00,Wunderground v.1.15,2017-12-17 08:46:00,
2017-12-17 03:50:00,60.4,56.5,30.19,NW,313,0.0,0.0,87,0.00,,,0.00,Wunderground v.1.15,2017-12-17 08:50:00,
2017-12-17 03:55:00,60.4,56.5,30.18,NW,313,0.0,0.0,87,0.00,,,0.00,Wunderground v.1.15,2017-12-17 08:55:00,
2017-12-17 04:00:00,60.3,56.4,30.19,NW,313,0.0,0.0,87,0.00,,,0.00,Wunderground v.1.15,2017-12-17 09:00:00,
2017-12-17 04:04:00,60.2,56.3,30.18,NW,313,0.0,0.0,87,0.00,,,0.00,Wunderground v.1.15,2017-12-17 09:04:00,
2017-12-17 04:05:00,60.2,56.3,30.19,NW,313,0.0,0.0,87,0.00,,,0.00,Wunderground v.1.15,2017-12-17 09:05:00,
2017-12-17 04:09:00,60.1,56.2,30.18,NW,313,0.0,0.0,87,0.00,,,0.00,Wunderground v.1.15,2017-12-17 09:09:00,
2017-12-17 04:12:00,60.1,56.2,30.18,NW,313,0.0,0.0,87,0.00,,,0.00,Wunderground v.1.15,2017-12-17 09:12:00,
2017-12-17 04:16:00,60.0,56.1,30.18,NW,313,0.0,0.0,87,0.00,,,0.00,Wunderground v.1.15,2017-12-17 09:16:00,
2017-12-17 04:21:00,59.9,56.0,30.18,NW,313,0.0,0.0,87,0.00,,,0.00,Wunderground v.1.15,2017-12-17 09:21:00,
2017-12-17 04:23:00,59.9,56.0,30.18,NW,313,0.0,0.0,87,0.00,,,0.00,Wunderground v.1.15,2017-12-17 09:23:00,
2017-12-17 04:29:00,59.8,55.9,30.18,NW,313,0.0,0.0,87,0.00,,,0.00,Wunderground v.1.15,2017-12-17 09:29:00,
2017-12-17 04:34:00,59.8,55.9,30.17,NW,313,0.0,0.0,87,0.00,,,0.00,Wunderground v.1.15,2017-12-17 09:34:00,
2017-12-17 04:39:00,59.8,55.9,30.17,NW,313,0.0,0.0,87,0.00,,,0.00,Wunderground v.1.15,2017-12-17 09:39:00,
2017-12-17 04:41:00,59.8,55.9,30.17,NW,313,0.0,0.0,87,0.00,,,0.00,Wunderground v.1.15,2017-12-17 09:41:00,
2017-12-17 04:46:00,59.7,55.8,30.17,NW,313,0.0,0.0,87,0.00,,,0.00,Wunderground v.1.15,2017-12-17 09:46:00,
2017-12-17 04:51:00,59.7,55.8,30.17,NW,313,0.0,0.0,87,0.00,,,0.00,Wunderground v.1.15,2017-12-17 09:51:00,
2017-12-17 04:57:00,59.6,55.7,30.17,NW,313,0.0,0.0,87,0.00,,,0.00,Wunderground v.1.15,2017-12-17 09:57:00,
2017-12-17 04:59:00,59.6,55.7,30.17,NW,313,0.0,0.0,87,0.00,,,0.00,Wunderground v.1.15,2017-12-17 09:59:00,
2017-12-17 05:04:00,59.6,55.7,30.17,NW,313,0.0,0.0,87,0.00,,,0.00,Wunderground v.1.15,2017-12-17 10:04:00,
2017-12-17 05:08:00,59.5,55.6,30.17,NW,313,0.0,0.0,87,0.00,,,0.00,Wunderground v.1.15,2017-12-17 10:08:00,
2017-12-17 05:14:00,59.5,55.6,30.18,NW,313,0.0,0.0,87,0.00,,,0.00,Wunderground v.1.15,2017-12-17 10:14:00,
2017-12-17 05:20:00,59.4,55.5,30.17,NW,313,0.0,0.0,87,0.00,,,0.00,Wunderground v.1.15,2017-12-17 10:20:00,
2017-12-17 05:25:00,59.3,55.4,30.17,NW,313,0.0,0.0,87,0.00,,,0.00,Wunderground v.1.15,2017-12-17 10:25:00,
2017-12-17 05:30:00,59.3,55.4,30.18,NW,313,0.0,0.0,87,0.00,,,0.00,Wunderground v.1.15,2017-12-17 10:30:00,
2017-12-17 05:31:00,59.3,55.4,30.18,NW,313,0.0,0.0,87,0.00,,,0.00,Wunderground v.1.15,2017-12-17 10:31:00,
2017-12-17 05:36:00,59.2,55.3,30.18,NW,313,0.0,0.0,87,0.00,,,0.00,Wunderground v.1.15,2017-12-17 10:36:00,
2017-12-17 05:41:00,59.1,55.2,30.18,NW,313,0.0,0.0,87,0.00,,,0.00,Wunderground v.1.15,2017-12-17 10:41:00,
2017-12-17 05:47:00,59.1,55.2,30.18,NW,313,0.0,0.0,87,0.00,,,0.00,Wunderground v.1.15,2017-12-17 10:47:00,
2017-12-17 05:50:00,59.1,55.2,30.18,NW,313,0.0,0.0,87,0.00,,,0.00,Wunderground v.1.15,2017-12-17 10:50:00,
2017-12-17 05:56:00,59.1,55.2,30.18,NW,313,0.0,0.0,87,0.00,,,0.00,Wunderground v.1.15,2017-12-17 10:56:00,
2017-12-17 05:58:00,59.0,55.1,30.18,NW,313,0.0,0.0,87,0.00,,,0.00,Wunderground v.1.15,2017-12-17 10:58:00,
2017-12-17 06:00:00,59.0,55.1,30.18,NW,313,0.0,0.0,87,0.00,,,0.00,Wunderground v.1.15,2017-12-17 11:00:00,
2017-12-17 06:05:00,59.0,55.1,30.18,NW,313,0.0,0.0,87,0.00,,,0.00,Wunderground v.1.15,2017-12-17 11:05:00,
2017-12-17 06:10:00,59.0,55.1,30.18,NW,313,0.0,0.0,87,0.00,,,0.00,Wunderground v.1.15,2017-12-17 11:10:00,
2017-12-17 06:16:00,59.0,55.1,30.18,NW,313,0.0,0.0,87,0.00,,,0.00,Wunderground v.1.15,2017-12-17 11:16:00,
2017-12-17 06:21:00,59.1,55.2,30.18,NW,313,0.0,0.0,87,0.00,,,0.00,Wunderground v.1.15,2017-12-17 11:21:00,
2017-12-17 06:25:00,59.0,55.1,30.19,NW,313,0.0,0.0,87,0.00,,,0.00,Wunderground v.1.15,2017-12-17 11:25:00,
2017-12-17 06:26:00,59.1,55.2,30.19,NW,313,0.0,0.0,87,0.00,,,0.00,Wunderground v.1.15,2017-12-17 11:26:00,
2017-12-17 06:32:00,59.0,55.1,30.18,NW,313,0.0,0.0,87,0.00,,,0.00,Wunderground v.1.15,2017-12-17 11:32:00,
2017-12-17 06:38:00,59.0,55.1,30.18,NW,313,0.0,0.0,87,0.00,,,0.00,Wunderground v.1.15,2017-12-17 11:38:00,
2017-12-17 06:44:00,59.0,55.1,30.18,NW,313,0.0,0.0,87,0.00,,,0.00,Wunderground v.1.15,2017-12-17 11:44:00,
2017-12-17 06:46:00,58.9,55.0,30.19,NW,313,0.0,0.0,87,0.00,,,0.00,Wunderground v.1.15,2017-12-17 11:46:00,
2017-12-17 06:51:00,58.9,55.0,30.19,NW,313,0.0,0.0,87,0.00,,,0.00,Wunderground v.1.15,2017-12-17 11:51:00,
2017-12-17 06:56:00,58.9,55.0,30.19,NW,313,0.0,0.0,87,0.00,,,0.00,Wunderground v.1.15,2017-12-17 11:56:00,
2017-12-17 06:57:00,58.9,55.0,30.19,NW,313,0.0,0.0,87,0.00,,,0.00,Wunderground v.1.15,2017-12-17 11:57:00,
2017-12-17 07:03:00,58.9,55.0,30.19,NW,313,0.0,0.0,87,0.00,,,0.00,Wunderground v.1.15,2017-12-17 12:03:00,
2017-12-17 07:09:00,58.9,55.0,30.19,NW,313,0.0,0.0,87,0.00,,,0.00,Wunderground v.1.15,2017-12-17 12:09:00,
2017-12-17 07:14:00,58.9,55.0,30.19,NW,313,0.0,0.0,87,0.00,,,0.00,Wunderground v.1.15,2017-12-17 12:14:00,
2017-12-17 07:16:00,58.9,55.0,30.20,NW,313,0.0,0.0,87,0.00,,,0.00,Wunderground v.1.15,2017-12-17 12:16:00,
2017-12-17 07:19:00,58.9,55.0,30.20,NW,313,0.0,0.0,87,0.00,,,0.00,Wunderground v.1.15,2017-12-17 12:19:00,
2017-12-17 07:25:00,58.9,55.0,30.20,NW,313,0.0,0.0,87,0.00,,,0.00,Wunderground v.1.15,2017-12-17 12:25:00,
2017-12-17 07:26:00,58.9,55.0,30.20,NW,313,0.0,0.0,87,0.00,,,0.00,Wunderground v.1.15,2017-12-17 12:26:00,
2017-12-17 07:32:00,58.9,55.0,30.20,NW,313,0.0,0.0,87,0.00,,,0.00,Wunderground v.1.15,2017-12-17 12:32:00,
2017-12-17 07:37:00,58.9,55.0,30.20,NW,313,0.0,0.0,87,0.00,,,0.00,Wunderground v.1.15,2017-12-17 12:37:00,
2017-12-17 07:42:00,59.5,55.6,30.19,NW,313,0.0,0.0,87,0.00,,,0.00,Wunderground v.1.15,2017-12-17 12:42:00,
2017-12-17 07:48:00,59.6,55.7,30.20,NW,313,0.0,0.0,87,0.00,,,0.00,Wunderground v.1.15,2017-12-17 12:48:00,
2017-12-17 07:52:00,59.5,55.6,30.20,NW,313,0.0,0.0,87,0.00,,,0.00,Wunderground v.1.15,2017-12-17 12:52:00,
2017-12-17 07:54:00,59.5,55.6,30.20,NW,313,0.0,0.0,87,0.00,,,0.00,Wunderground v.1.15,2017-12-17 12:54:00,
2017-12-17 07:59:00,59.5,55.6,30.20,NW,313,0.0,0.0,87,0.00,,,0.00,Wunderground v.1.15,2017-12-17 12:59:00,
2017-12-17 08:05:00,59.6,55.7,30.20,NW,313,0.0,0.0,87,0.00,,,0.00,Wunderground v.1.15,2017-12-17 13:05:00,
2017-12-17 08:07:00,59.7,55.8,30.20,NW,313,0.0,0.0,87,0.00,,,0.00,Wunderground v.1.15,2017-12-17 13:07:00,
2017-12-17 08:12:00,60.0,56.1,30.21,NW,313,0.0,0.0,87,0.00,,,0.00,Wunderground v.1.15,2017-12-17 13:12:00,
2017-12-17 08:17:00,60.2,56.3,30.21,NW,313,0.0,0.0,87,0.00,,,0.00,Wunderground v.1.15,2017-12-17 13:17:00,
2017-12-17 08:23:00,60.5,56.6,30.21,NW,313,0.0,0.0,87,0.00,,,0.00,Wunderground v.1.15,2017-12-17 13:23:00,
2017-12-17 08:28:00,60.8,56.9,30.22,NW,313,0.0,0.0,87,0.00,,,0.00,Wunderground v.1.15,2017-12-17 13:28:00,
2017-12-17 08:30:00,61.0,57.1,30.22,NW,313,0.0,0.0,87,0.00,,,0.00,Wunderground v.1.15,2017-12-17 13:30:00,
2017-12-17 08:33:00,61.8,57.9,30.22,NW,313,0.0,0.0,87,0.00,,,0.00,Wunderground v.1.15,2017-12-17 13:33:00,
2017-12-17 08:39:00,62.1,58.2,30.22,NW,313,0.0,0.0,87,0.00,,,0.00,Wunderground v.1.15,2017-12-17 13:39:00,
2017-12-17 08:41:00,62.1,58.2,30.22,NW,313,0.0,0.0,87,0.00,,,0.00,Wunderground v.1.15,2017-12-17 13:41:00,
2017-12-17 08:46:00,62.3,58.4,30.23,NW,313,0.0,0.0,87,0.00,,,0.00,Wunderground v.1.15,2017-12-17 13:46:00,
2017-12-17 08:50:00,62.5,58.6,30.23,NW,313,0.0,0.0,87,0.00,,,0.00,Wunderground v.1.15,2017-12-17 13:50:00,
2017-12-17 08:55:00,62.7,58.8,30.23,NW,313,0.0,0.0,87,0.00,,,0.00,Wunderground v.1.15,2017-12-17 13:55:00,
2017-12-17 09:00:00,63.0,59.1,30.23,NW,313,0.0,0.0,87,0.00,,,0.00,Wunderground v.1.15,2017-12-17 14:00:00,
2017-12-17 09:05:00,63.3,59.4,30.23,NW,313,0.0,0.0,87,0.00,,,0.00,Wunderground v.1.15,2017-12-17 14:05:00,
2017-12-17 09:06:00,63.4,59.5,30.23,NW,313,0.0,0.0,87,0.00,,,0.00,Wunderground v.1.15,2017-12-17 14:06:00,
2017-12-17 09:12:00,64.0,59.7,30.23,NW,313,0.0,0.0,86,0.00,,,0.00,Wunderground v.1.15,2017-12-17 14:12:00,
2017-12-17 09:14:00,64.1,60.2,30.23,NW,313,0.0,0.0,87,0.00,,,0.00,Wunderground v.1.15,2017-12-17 14:14:00,
2017-12-17 09:19:00,64.6,60.3,30.23,NW,313,0.0,0.0,86,0.00,,,0.00,Wunderground v.1.15,2017-12-17 14:19:00,
2017-12-17 09:20:00,64.6,60.3,30.23,NW,313,0.0,0.0,86,0.00,,,0.00,Wunderground v.1.15,2017-12-17 14:20:00,
2017-12-17 09:25:00,65.1,60.8,30.23,NW,313,0.0,0.0,86,0.00,,,0.00,Wunderground v.1.15,2017-12-17 14:25:00,
2017-12-17 09:30:00,65.6,61.3,30.23,NW,313,0.0,0.0,86,0.00,,,0.00,Wunderground v.1.15,2017-12-17 14:30:00,
2017-12-17 09:34:00,66.1,61.8,30.23,NW,313,0.0,0.0,86,0.00,,,0.00,Wunderground v.1.15,2017-12-17 14:34:00,
2017-12-17 09:40:00,67.7,62.7,30.23,NW,313,0.0,0.0,84,0.00,,,0.00,Wunderground v.1.15,2017-12-17 14:40:00,
2017-12-17 09:42:00,67.8,62.4,30.23,NW,313,0.0,0.0,83,0.00,,,0.00,Wunderground v.1.15,2017-12-17 14:42:00,
2017-12-17 09:47:00,68.0,62.6,30.23,NW,315,0.0,0.0,83,0.00,,,0.00,Wunderground v.1.15,2017-12-17 14:47:00,
2017-12-17 09:49:00,68.1,62.7,30.23,NW,315,0.0,0.0,83,0.00,,,0.00,Wunderground v.1.15,2017-12-17 14:49:00,
2017-12-17 09:54:00,68.4,63.0,30.23,NW,315,0.0,0.0,83,0.00,,,0.00,Wunderground v.1.15,2017-12-17 14:54:00,
2017-12-17 09:56:00,68.6,63.2,30.23,NW,315,0.0,0.0,83,0.00,,,0.00,Wunderground v.1.15,2017-12-17 14:56:00,
2017-12-17 10:02:00,69.6,63.9,30.23,NW,315,0.0,0.0,82,0.00,,,0.00,Wunderground v.1.15,2017-12-17 15:02:00,
2017-12-17 10:07:00,69.9,63.8,30.23,NW,315,0.0,0.0,81,0.00,,,0.00,Wunderground v.1.15,2017-12-17 15:07:00,
2017-12-17 10:08:00,69.9,63.8,30.23,NW,315,0.0,0.0,81,0.00,,,0.00,Wunderground v.1.15,2017-12-17 15:08:00,
2017-12-17 10:09:00,69.9,63.8,30.23,NW,315,1.0,1.0,81,0.00,,,0.00,Wunderground v.1.15,2017-12-17 15:09:00,
2017-12-17 10:14:00,70.3,64.2,30.23,NW,315,0.0,1.0,81,0.00,,,0.00,Wunderground v.1.15,2017-12-17 15:14:00,
2017-12-17 10:20:00,70.5,64.4,30.23,NW,315,0.0,0.0,81,0.00,,,0.00,Wunderground v.1.15,2017-12-17 15:20:00,
2017-12-17 10:22:00,70.9,65.1,30.23,NW,315,0.0,0.0,82,0.00,,,0.00,Wunderground v.1.15,2017-12-17 15:22:00,
2017-12-17 10:25:00,71.8,64.9,30.23,NW,315,0.0,0.0,79,0.00,,,0.00,Wunderground v.1.15,2017-12-17 15:25:00,
2017-12-17 10:30:00,72.1,65.2,30.22,NW,315,0.0,0.0,79,0.00,,,0.00,Wunderground v.1.15,2017-12-17 15:30:00,
2017-12-17 10:31:00,72.1,65.2,30.22,NW,315,0.0,0.0,79,0.00,,,0.00,Wunderground v.1.15,2017-12-17 15:31:00,
2017-12-17 10:36:00,72.9,65.6,30.23,NNW,338,0.0,0.0,78,0.00,,,0.00,Wunderground v.1.15,2017-12-17 15:36:00,
2017-12-17 10:41:00,73.5,65.8,30.23,SSE,154,5.0,5.0,77,0.00,,,0.00,Wunderground v.1.15,2017-12-17 15:41:00,
2017-12-17 10:43:00,73.8,65.8,30.23,SE,127,2.0,10.0,76,0.00,,,0.00,Wunderground v.1.15,2017-12-17 15:43:00,
2017-12-17 10:49:00,75.2,66.3,30.23,SSE,154,3.0,10.0,74,0.00,,,0.00,Wunderground v.1.15,2017-12-17 15:49:00,
2017-12-17 10:54:00,76.0,66.3,30.23,SSE,151,0.0,1.0,72,0.00,,,0.00,Wunderground v.1.15,2017-12-17 15:54:00,
2017-12-17 10:58:00,76.0,66.3,30.23,SE,146,2.0,5.0,72,0.00,,,0.00,Wunderground v.1.15,2017-12-17 15:58:00,
2017-12-17 11:04:00,76.1,66.0,30.23,SE,138,0.0,6.0,71,0.00,,,0.00,Wunderground v.1.15,2017-12-17 16:04:00,
2017-12-17 11:06:00,76.0,65.9,30.23,SE,138,0.0,6.0,71,0.00,,,0.00,Wunderground v.1.15,2017-12-17 16:06:00,
2017-12-17 11:11:00,75.8,65.7,30.22,SE,135,0.0,1.0,71,0.00,,,0.00,Wunderground v.1.15,2017-12-17 16:11:00,
2017-12-17 11:13:00,75.8,65.7,30.22,SE,135,4.0,5.0,71,0.00,,,0.00,Wunderground v.1.15,2017-12-17 16:13:00,
2017-12-17 11:19:00,76.2,65.7,30.22,SE,134,0.0,0.0,70,0.00,,,0.00,Wunderground v.1.15,2017-12-17 16:19:00,
2017-12-17 11:24:00,77.3,66.3,30.22,SE,135,0.0,0.0,69,0.00,,,0.00,Wunderground v.1.15,2017-12-17 16:24:00,
2017-12-17 11:28:00,77.6,66.2,30.22,South,173,0.0,1.0,68,0.00,,,0.00,Wunderground v.1.15,2017-12-17 16:28:00,
2017-12-17 11:33:00,77.6,66.2,30.21,South,173,0.0,1.0,68,0.00,,,0.00,Wunderground v.1.15,2017-12-17 16:33:00,
2017-12-17 11:35:00,77.5,66.5,30.22,South,173,0.0,1.0,69,0.00,,,0.00,Wunderground v.1.15,2017-12-17 16:35:00,
2017-12-17 11:40:00,77.9,66.9,30.22,SE,146,0.0,0.0,69,0.00,,,0.00,Wunderground v.1.15,2017-12-17 16:40:00,
2017-12-17 11:46:00,77.8,66.8,30.21,SE,140,0.0,0.0,69,0.00,,,0.00,Wunderground v.1.15,2017-12-17 16:46:00,
2017-12-17 11:51:00,79.0,67.1,30.21,SE,136,0.0,0.0,67,0.00,,,0.00,Wunderground v.1.15,2017-12-17 16:51:00,
2017-12-17 11:56:00,78.9,67.4,30.21,SE,136,0.0,0.0,68,0.00,,,0.00,Wunderground v.1.15,2017-12-17 16:56:00,
2017-12-17 12:02:00,79.0,67.5,30.21,SE,134,0.0,1.0,68,0.00,,,0.00,Wunderground v.1.15,2017-12-17 17:02:00,
2017-12-17 12:04:00,79.1,67.6,30.20,SE,131,4.0,4.0,68,0.00,,,0.00,Wunderground v.1.15,2017-12-17 17:04:00,
2017-12-17 12:09:00,79.0,67.5,30.20,SE,131,0.0,0.0,68,0.00,,,0.00,Wunderground v.1.15,2017-12-17 17:09:00,
2017-12-17 12:14:00,79.1,68.1,30.19,SE,131,0.0,0.0,69,0.00,,,0.00,Wunderground v.1.15,2017-12-17 17:14:00,
2017-12-17 12:20:00,80.2,67.4,30.19,SE,131,0.0,0.0,65,0.00,,,0.00,Wunderground v.1.15,2017-12-17 17:20:00,
2017-12-17 12:24:00,79.8,67.4,30.19,SE,130,5.0,5.0,66,0.00,,,0.00,Wunderground v.1.15,2017-12-17 17:24:00,
2017-12-17 12:27:00,80.0,67.6,30.19,SE,134,1.0,5.0,66,0.00,,,0.00,Wunderground v.1.15,2017-12-17 17:27:00,
2017-12-17 12:32:00,79.3,67.0,30.18,SE,134,0.0,1.0,66,0.00,,,0.00,Wunderground v.1.15,2017-12-17 17:32:00,
2017-12-17 12:38:00,78.8,67.3,30.18,SE,134,0.0,1.0,68,0.00,,,0.00,Wunderground v.1.15,2017-12-17 17:38:00,
2017-12-17 12:40:00,79.1,67.6,30.18,SE,134,0.0,0.0,68,0.00,,,0.00,Wunderground v.1.15,2017-12-17 17:40:00,
2017-12-17 12:44:00,79.1,66.8,30.18,SE,131,4.0,5.0,66,0.00,,,0.00,Wunderground v.1.15,2017-12-17 17:44:00,
2017-12-17 12:50:00,78.3,66.9,30.17,SE,138,0.0,2.0,68,0.00,,,0.00,Wunderground v.1.15,2017-12-17 17:50:00,
2017-12-17 12:53:00,78.4,67.0,30.17,SE,138,0.0,2.0,68,0.00,,,0.00,Wunderground v.1.15,2017-12-17 17:53:00,
2017-12-17 13:00:00,78.5,67.1,30.17,SE,135,0.0,1.0,68,0.00,,,0.00,Wunderground v.1.15,2017-12-17 18:00:00,
2017-12-17 13:05:00,79.4,67.5,30.17,SE,142,0.0,1.0,67,0.00,,,0.00,Wunderground v.1.15,2017-12-17 18:05:00,
2017-12-17 13:10:00,80.0,67.2,30.17,SE,131,0.0,0.0,65,0.00,,,0.00,Wunderground v.1.15,2017-12-17 18:10:00,
2017-12-17 13:14:00,80.0,66.7,30.17,SE,128,8.0,8.0,64,0.00,,,0.00,Wunderground v.1.15,2017-12-17 18:14:00,
2017-12-17 13:19:00,79.7,66.4,30.17,SE,142,0.0,5.0,64,0.00,,,0.00,Wunderground v.1.15,2017-12-17 18:19:00,
2017-12-17 13:25:00,79.7,66.9,30.17,SSE,153,0.0,5.0,65,0.00,,,0.00,Wunderground v.1.15,2017-12-17 18:25:00,
2017-12-17 13:30:00,80.8,67.9,30.17,SE,144,0.0,6.0,65,0.00,,,0.00,Wunderground v.1.15,2017-12-17 18:30:00,
2017-12-17 13:32:00,81.0,68.1,30.17,SE,146,0.0,6.0,65,0.00,,,0.00,Wunderground v.1.15,2017-12-17 18:32:00,
2017-12-17 13:38:00,80.8,67.0,30.17,SSE,151,0.0,1.0,63,0.00,,,0.00,Wunderground v.1.15,2017-12-17 18:38:00,
2017-12-17 13:44:00,80.5,67.2,30.16,SSE,147,4.0,4.0,64,0.00,,,0.00,Wunderground v.1.15,2017-12-17 18:44:00,
2017-12-17 13:49:00,80.8,67.5,30.16,SSE,149,0.0,2.0,64,0.00,,,0.00,Wunderground v.1.15,2017-12-17 18:49:00,
2017-12-17 13:55:00,81.8,68.4,30.15,SSE,149,0.0,2.0,64,0.00,,,0.00,Wunderground v.1.15,2017-12-17 18:55:00,
2017-12-17 14:00:00,81.7,68.3,30.15,SSE,152,0.0,1.0,64,0.00,,,0.00,Wunderground v.1.15,2017-12-17 19:00:00,
2017-12-17 14:01:00,81.6,68.2,30.15,SSE,152,0.0,1.0,64,0.00,,,0.00,Wunderground v.1.15,2017-12-17 19:01:00,
2017-12-17 14:07:00,81.1,68.2,30.16,ESE,122,8.0,10.0,65,0.00,,,0.00,Wunderground v.1.15,2017-12-17 19:07:00,
2017-12-17 14:13:00,81.3,68.4,30.16,SE,140,0.0,5.0,65,0.00,,,0.00,Wunderground v.1.15,2017-12-17 19:13:00,
2017-12-17 14:18:00,80.9,68.0,30.15,SSE,155,6.0,6.0,65,0.00,,,0.00,Wunderground v.1.15,2017-12-17 19:18:00,
2017-12-17 14:20:00,80.6,67.7,30.15,SSE,153,1.0,3.0,65,0.00,,,0.00,Wunderground v.1.15,2017-12-17 19:20:00,
2017-12-17 14:25:00,80.2,68.2,30.15,SE,142,0.0,5.0,67,0.00,,,0.00,Wunderground v.1.15,2017-12-17 19:25:00,
2017-12-17 14:26:00,80.2,68.2,30.15,SE,142,0.0,5.0,67,0.00,,,0.00,Wunderground v.1.15,2017-12-17 19:26:00,
2017-12-17 14:31:00,81.6,68.7,30.15,SSE,147,0.0,3.0,65,0.00,,,0.00,Wunderground v.1.15,2017-12-17 19:31:00,
2017-12-17 14:37:00,81.1,68.7,30.15,SE,143,7.0,7.0,66,0.00,,,0.00,Wunderground v.1.15,2017-12-17 19:37:00,
2017-12-17 14:42:00,80.6,68.2,30.15,SE,134,5.0,5.0,66,0.00,,,0.00,Wunderground v.1.15,2017-12-17 19:42:00,
2017-12-17 14:48:00,80.9,68.5,30.15,SE,143,4.0,5.0,66,0.00,,,0.00,Wunderground v.1.15,2017-12-17 19:48:00,
2017-12-17 14:53:00,81.1,68.2,30.15,SSE,151,0.0,2.0,65,0.00,,,0.00,Wunderground v.1.15,2017-12-17 19:53:00,
2017-12-17 14:55:00,81.0,68.1,30.15,SSE,157,3.0,3.0,65,0.00,,,0.00,Wunderground v.1.15,2017-12-17 19:55:00,
2017-12-17 15:00:00,80.4,68.0,30.15,SE,142,0.0,3.0,66,0.00,,,0.00,Wunderground v.1.15,2017-12-17 20:00:00,
2017-12-17 15:01:00,80.3,67.9,30.15,SE,141,0.0,3.0,66,0.00,,,0.00,Wunderground v.1.15,2017-12-17 20:01:00,
2017-12-17 15:07:00,81.2,69.2,30.15,SSE,155,0.0,3.0,67,0.00,,,0.00,Wunderground v.1.15,2017-12-17 20:07:00,
2017-12-17 15:09:00,81.7,68.8,30.15,SSE,155,0.0,0.0,65,0.00,,,0.00,Wunderground v.1.15,2017-12-17 20:09:00,
2017-12-17 15:15:00,81.7,68.8,30.15,SE,142,3.0,3.0,65,0.00,,,0.00,Wunderground v.1.15,2017-12-17 20:15:00,
2017-12-17 15:18:00,81.1,67.8,30.15,SE,142,0.0,1.0,64,0.00,,,0.00,Wunderground v.1.15,2017-12-17 20:18:00,
2017-12-17 15:24:00,81.0,68.6,30.16,SE,142,0.0,1.0,66,0.00,,,0.00,Wunderground v.1.15,2017-12-17 20:24:00,
2017-12-17 15:26:00,81.2,68.8,30.15,SE,144,0.0,1.0,66,0.00,,,0.00,Wunderground v.1.15,2017-12-17 20:26:00,
2017-12-17 15:31:00,80.6,68.2,30.15,SE,144,0.0,0.0,66,0.00,,,0.00,Wunderground v.1.15,2017-12-17 20:31:00,
2017-12-17 15:36:00,80.0,68.1,30.15,SE,144,0.0,0.0,67,0.00,,,0.00,Wunderground v.1.15,2017-12-17 20:36:00,
2017-12-17 15:42:00,80.4,68.4,30.16,SE,144,0.0,0.0,67,0.00,,,0.00,Wunderground v.1.15,2017-12-17 20:42:00,
2017-12-17 15:47:00,81.3,68.4,30.15,SE,144,0.0,0.0,65,0.00,,,0.00,Wunderground v.1.15,2017-12-17 20:47:00,
2017-12-17 15:49:00,81.1,68.2,30.16,SE,144,0.0,0.0,65,0.00,,,0.00,Wunderground v.1.15,2017-12-17 20:49:00,
2017-12-17 15:54:00,80.5,67.6,30.16,SE,144,0.0,3.0,65,0.00,,,0.00,Wunderground v.1.15,2017-12-17 20:54:00,
2017-12-17 16:00:00,80.6,68.6,30.16,SE,144,0.0,0.0,67,0.00,,,0.00,Wunderground v.1.15,2017-12-17 21:00:00,
2017-12-17 16:03:00,81.8,68.9,30.15,SE,144,0.0,0.0,65,0.00,,,0.00,Wunderground v.1.15,2017-12-17 21:03:00,
2017-12-17 16:09:00,81.8,68.4,30.15,SE,144,0.0,0.0,64,0.00,,,0.00,Wunderground v.1.15,2017-12-17 21:09:00,
2017-12-17 16:14:00,81.3,68.4,30.15,SE,144,0.0,0.0,65,0.00,,,0.00,Wunderground v.1.15,2017-12-17 21:14:00,
2017-12-17 16:16:00,81.1,68.2,30.15,SE,144,0.0,0.0,65,0.00,,,0.00,Wunderground v.1.15,2017-12-17 21:16:00,
2017-12-17 16:22:00,81.9,69.0,30.15,SE,144,0.0,0.0,65,0.00,,,0.00,Wunderground v.1.15,2017-12-17 21:22:00,
2017-12-17 16:27:00,82.0,68.6,30.16,SE,144,0.0,0.0,64,0.00,,,0.00,Wunderground v.1.15,2017-12-17 21:27:00,
2017-12-17 16:32:00,81.2,68.3,30.16,SE,144,0.0,0.0,65,0.00,,,0.00,Wunderground v.1.15,2017-12-17 21:32:00,
2017-12-17 16:36:00,80.9,68.9,30.16,SE,144,0.0,0.0,67,0.00,,,0.00,Wunderground v.1.15,2017-12-17 21:36:00,
2017-12-17 16:42:00,81.5,68.6,30.16,SE,145,0.0,0.0,65,0.00,,,0.00,Wunderground v.1.15,2017-12-17 21:42:00,
2017-12-17 16:44:00,81.5,68.6,30.16,SE,145,0.0,0.0,65,0.00,,,0.00,Wunderground v.1.15,2017-12-17 21:44:00,
2017-12-17 16:49:00,80.9,68.9,30.16,SE,145,0.0,0.0,67,0.00,,,0.00,Wunderground v.1.15,2017-12-17 21:49:00,
2017-12-17 16:54:00,80.5,69.0,30.16,SE,145,0.0,0.0,68,0.00,,,0.00,Wunderground v.1.15,2017-12-17 21:54:00,
2017-12-17 17:00:00,81.3,69.3,30.16,SE,145,0.0,0.0,67,0.00,,,0.00,Wunderground v.1.15,2017-12-17 22:00:00,
2017-12-17 17:01:00,81.3,68.9,30.16,SE,145,0.0,0.0,66,0.00,,,0.00,Wunderground v.1.15,2017-12-17 22:01:00,
2017-12-17 17:08:00,80.4,68.4,30.16,SE,145,0.0,0.0,67,0.00,,,0.00,Wunderground v.1.15,2017-12-17 22:08:00,
2017-12-17 17:09:00,80.1,68.6,30.16,SE,145,0.0,0.0,68,0.00,,,0.00,Wunderground v.1.15,2017-12-17 22:09:00,
2017-12-17 17:10:00,80.1,68.6,30.16,SE,145,0.0,0.0,68,0.00,,,0.00,Wunderground v.1.15,2017-12-17 22:10:00,
2017-12-17 17:16:00,79.7,68.2,30.15,SE,145,0.0,0.0,68,0.00,,,0.00,Wunderground v.1.15,2017-12-17 22:16:00,
2017-12-17 17:21:00,79.4,67.9,30.15,SE,145,0.0,0.0,68,0.00,,,0.00,Wunderground v.1.15,2017-12-17 22:21:00,
2017-12-17 17:27:00,78.6,68.0,30.16,SE,145,0.0,0.0,70,0.00,,,0.00,Wunderground v.1.15,2017-12-17 22:27:00,
2017-12-17 17:32:00,79.2,68.1,30.16,SE,145,0.0,0.0,69,0.00,,,0.00,Wunderground v.1.15,2017-12-17 22:32:00,
2017-12-17 17:38:00,78.8,67.8,30.16,SE,145,0.0,0.0,69,0.00,,,0.00,Wunderground v.1.15,2017-12-17 22:38:00,
2017-12-17 17:43:00,78.4,68.2,30.16,SE,145,0.0,0.0,71,0.00,,,0.00,Wunderground v.1.15,2017-12-17 22:43:00,
2017-12-17 17:47:00,78.3,68.1,30.16,SE,145,0.0,0.0,71,0.00,,,0.00,Wunderground v.1.15,2017-12-17 22:47:00,
2017-12-17 17:52:00,77.8,67.6,30.16,SE,145,0.0,0.0,71,0.00,,,0.00,Wunderground v.1.15,2017-12-17 22:52:00,
2017-12-17 17:57:00,77.1,67.4,30.16,SE,145,0.0,0.0,72,0.00,,,0.00,Wunderground v.1.15,2017-12-17 22:57:00,
2017-12-17 17:58:00,77.1,67.4,30.16,SE,145,0.0,0.0,72,0.00,,,0.00,Wunderground v.1.15,2017-12-17 22:58:00,
2017-12-17 18:03:00,76.6,67.7,30.17,SE,145,0.0,0.0,74,0.00,,,0.00,Wunderground v.1.15,2017-12-17 23:03:00,
2017-12-17 18:08:00,76.4,67.5,30.16,SE,145,0.0,0.0,74,0.00,,,0.00,Wunderground v.1.15,2017-12-17 23:08:00,
2017-12-17 18:14:00,76.0,67.5,30.17,SE,145,0.0,0.0,75,0.00,,,0.00,Wunderground v.1.15,2017-12-17 23:14:00,
2017-12-17 18:19:00,76.1,67.6,30.17,SE,145,0.0,0.0,75,0.00,,,0.00,Wunderground v.1.15,2017-12-17 23:19:00,
2017-12-17 18:25:00,75.7,67.2,30.17,SE,145,0.0,0.0,75,0.00,,,0.00,Wunderground v.1.15,2017-12-17 23:25:00,
2017-12-17 18:30:00,75.2,66.7,30.17,SE,145,0.0,0.0,75,0.00,,,0.00,Wunderground v.1.15,2017-12-17 23:30:00,
2017-12-17 18:35:00,75.0,67.3,30.17,SE,145,0.0,0.0,77,0.00,,,0.00,Wunderground v.1.15,2017-12-17 23:35:00,
2017-12-17 18:36:00,75.0,66.9,30.17,SE,145,0.0,0.0,76,0.00,,,0.00,Wunderground v.1.15,2017-12-17 23:36:00,
2017-12-17 18:42:00,74.7,66.6,30.17,SE,145,0.0,0.0,76,0.00,,,0.00,Wunderground v.1.15,2017-12-17 23:42:00,
2017-12-17 18:47:00,74.2,66.1,30.17,SE,145,0.0,0.0,76,0.00,,,0.00,Wunderground v.1.15,2017-12-17 23:47:00,
2017-12-17 18:53:00,73.9,66.6,30.18,SE,145,0.0,0.0,78,0.00,,,0.00,Wunderground v.1.15,2017-12-17 23:53:00,
2017-12-17 18:58:00,73.6,66.3,30.18,SE,145,0.0,0.0,78,0.00,,,0.00,Wunderground v.1.15,2017-12-17 23:58:00,
2017-12-17 19:00:00,73.5,66.2,30.18,SE,145,0.0,0.0,78,0.00,,,0.00,Wunderground v.1.15,2017-12-18 00:00:00,
2017-12-17 19:05:00,73.1,65.8,30.18,SE,145,0.0,0.0,78,0.00,,,0.00,Wunderground v.1.15,2017-12-18 00:05:00,
2017-12-17 19:10:00,72.6,65.7,30.18,SE,145,0.0,0.0,79,0.00,,,0.00,Wunderground v.1.15,2017-12-18 00:10:00,
2017-12-17 19:15:00,72.3,66.1,30.18,SE,145,0.0,0.0,81,0.00,,,0.00,Wunderground v.1.15,2017-12-18 00:15:00,
2017-12-17 19:20:00,72.1,65.6,30.18,SE,145,0.0,0.0,80,0.00,,,0.00,Wunderground v.1.15,2017-12-18 00:20:00,
2017-12-17 19:26:00,71.7,65.2,30.18,SE,145,0.0,0.0,80,0.00,,,0.00,Wunderground v.1.15,2017-12-18 00:26:00,
2017-12-17 19:31:00,71.2,65.1,30.18,SE,145,0.0,0.0,81,0.00,,,0.00,Wunderground v.1.15,2017-12-18 00:31:00,
2017-12-17 19:37:00,71.4,65.6,30.19,SE,145,0.0,0.0,82,0.00,,,0.00,Wunderground v.1.15,2017-12-18 00:37:00,
2017-12-17 19:42:00,71.2,65.4,30.18,SE,145,0.0,0.0,82,0.00,,,0.00,Wunderground v.1.15,2017-12-18 00:42:00,
2017-12-17 19:46:00,71.0,65.2,30.19,SE,145,0.0,0.0,82,0.00,,,0.00,Wunderground v.1.15,2017-12-18 00:46:00,
2017-12-17 19:51:00,70.7,64.9,30.19,SE,145,0.0,0.0,82,0.00,,,0.00,Wunderground v.1.15,2017-12-18 00:51:00,
2017-12-17 19:57:00,71.0,65.6,30.19,SE,145,0.0,0.0,83,0.00,,,0.00,Wunderground v.1.15,2017-12-18 00:57:00,
2017-12-17 20:03:00,71.0,65.2,30.19,SE,145,0.0,0.0,82,0.00,,,0.00,Wunderground v.1.15,2017-12-18 01:03:00,
2017-12-17 20:08:00,70.8,65.0,30.19,SE,145,0.0,0.0,82,0.00,,,0.00,Wunderground v.1.15,2017-12-18 01:08:00,
2017-12-17 20:13:00,70.4,64.6,30.19,SE,145,0.0,0.0,82,0.00,,,0.00,Wunderground v.1.15,2017-12-18 01:13:00,
2017-12-17 20:19:00,70.5,65.1,30.19,SE,145,0.0,0.0,83,0.00,,,0.00,Wunderground v.1.15,2017-12-18 01:19:00,
2017-12-17 20:24:00,70.8,65.4,30.19,SE,145,0.0,0.0,83,0.00,,,0.00,Wunderground v.1.15,2017-12-18 01:24:00,
2017-12-17 20:29:00,70.4,64.6,30.19,SE,145,0.0,0.0,82,0.00,,,0.00,Wunderground v.1.15,2017-12-18 01:29:00,
2017-12-17 20:33:00,70.2,64.4,30.19,SE,145,0.0,0.0,82,0.00,,,0.00,Wunderground v.1.15,2017-12-18 01:33:00,
2017-12-17 20:38:00,69.8,64.4,30.19,SE,145,0.0,0.0,83,0.00,,,0.00,Wunderground v.1.15,2017-12-18 01:38:00,
2017-12-17 20:44:00,70.2,64.8,30.19,SE,145,0.0,0.0,83,0.00,,,0.00,Wunderground v.1.15,2017-12-18 01:44:00,
2017-12-17 20:46:00,70.2,64.8,30.19,SE,145,0.0,0.0,83,0.00,,,0.00,Wunderground v.1.15,2017-12-18 01:46:00,
2017-12-17 20:51:00,70.0,64.6,30.19,SE,145,0.0,0.0,83,0.00,,,0.00,Wunderground v.1.15,2017-12-18 01:51:00,
2017-12-17 20:56:00,69.7,64.3,30.19,SE,145,0.0,0.0,83,0.00,,,0.00,Wunderground v.1.15,2017-12-18 01:56:00,
2017-12-17 20:58:00,69.5,64.1,30.19,SE,145,0.0,0.0,83,0.00,,,0.00,Wunderground v.1.15,2017-12-18 01:58:00,
2017-12-17 21:00:00,69.5,64.1,30.19,SE,145,0.0,0.0,83,0.00,,,0.00,Wunderground v.1.15,2017-12-18 02:00:00,
2017-12-17 21:05:00,69.4,64.4,30.19,SE,145,0.0,0.0,84,0.00,,,0.00,Wunderground v.1.15,2017-12-18 02:05:00,
2017-12-17 21:10:00,69.8,64.7,30.19,SE,145,0.0,0.0,84,0.00,,,0.00,Wunderground v.1.15,2017-12-18 02:10:00,
2017-12-17 21:16:00,69.5,64.1,30.19,SE,145,0.0,0.0,83,0.00,,,0.00,Wunderground v.1.15,2017-12-18 02:16:00,